Regional Weather Roundup
Issued by NWS

Home | Current Version | Previous Version | Text Only | Print | Product List | Glossary Off
Versions: 1 2 3 4 5 6 7 8 9 10 11 12 13 14 15 16 17 18 19 20 21 22 23 24 25 26 27 28 29 30 31 32 33 34 35 36 37 38 39 40 41 42 43 44 45 46 47 48 49 50

000
ASUS43 KDMX 140601
RWRIA

WEATHER ROUNDUP FOR IOWA
NATIONAL WEATHER SERVICE DES MOINES IA
1200 AM CST THU DEC 14 2017

NOTE: "FAIR" INDICATES FEW OR NO CLOUDS BELOW 12,000 FEET WITH NO
SIGNIFICANT WEATHER AND/OR OBSTRUCTIONS TO VISIBILITY.

* - THESE STATIONS ARE NOT NWS STATIONS...THUS NOT UNDER NWS
QUALITY CONTROL.  THEY ALSO DO NOT REPORT WEATHER SUCH
AS PRECIPITATION OR FOG.

IAZ001>003-012>014-020>022-031>034-043>046-140700-
   NORTHWEST IOWA

CITY           SKY/WX    TMP DP  RH WIND       PRES   REMARKS
CARROLL *      CLOUDY    28  23  80 N12       29.97R WCI  18
CHEROKEE *     CLOUDY    29  26  88 N7        29.98S WCI  22
DENISON *      CLOUDY    32  25  74 NE9G15    29.99R WCI  24
LE MARS *      CLOUDY    30  27  86 N6        29.99S WCI  24
ORANGE CITY *  CLOUDY    30  28  93 N7        29.98R WCI  23
SHELDON *      CLOUDY    28  25  86 N7        29.96S WCI  21
SIOUX CITY     CLOUDY    35  28  75 N10       30.00R WCI  27
6HR MIN TEMP:  35; 6HR MAX TEMP:  40;

SPENCER        CLOUDY    26  18  71 N15       29.97R WCI  14
6HR MIN TEMP:  26; 6HR MAX TEMP:  33; 6HR PCP: TRACE;

STORM LAKE *   CLOUDY    27  23  86 N12       29.96S WCI  16
$$

IAZ055>058-069>071-079>083-090>094-140700-
   SOUTHWEST IOWA

CITY           SKY/WX    TMP DP  RH WIND       PRES   REMARKS
ATLANTIC *     CLOUDY    34  25  69 N10       29.97R WCI  26
AUDUBON *      CLOUDY    30  25  80 N12       29.98R WCI  21
CLARINDA *     CLOUDY    37  23  56 N13G18      N/A  WCI  29
COUNCIL BLFS * CLOUDY    36  28  75 N9G16     29.98S WCI  29
CRESTON *      CLOUDY    32  23  69 N16G23    29.97R WCI  21
HARLAN  *      CLOUDY    34  27  75 N8G14     30.00S WCI  27
LAMONI         CLOUDY    34  21  59 N14       29.94R WCI  25
6HR MIN TEMP:  34; 6HR MAX TEMP:  41;

RED OAK *      CLOUDY    36  25  64 N10       29.99R WCI  28
SHENANDOAH *   CLOUDY    37  25  60 N10       30.00R WCI  30
$$

IAZ047>049-059>061-072>074-084-140700-
   CENTRAL IOWA

CITY           SKY/WX    TMP DP  RH WIND       PRES   REMARKS
AMES           CLOUDY    28  21  75 N17       29.96R WCI  16
6HR MIN TEMP:  28; 6HR MAX TEMP:  35;

ANKENY *       CLOUDY    30  19  64 N13       29.97R WCI  20
BOONE *        CLOUDY    28  19  69 N12       29.95R WCI  18
CHARITON *     CLOUDY    30  21  69 N20G28    29.93R WCI  18
DES MOINES     CLOUDY    30  20  66 N14       29.96R WCI  19
6HR MIN TEMP:  30; 6HR MAX TEMP:  37;

GRINNELL*      CLOUDY    26  19  75 N12       29.95R WCI  16
KNOXVILLE *    CLOUDY    30  19  64 N13       29.93R WCI  20
MARSHALLTOWN   CLOUDY    25  18  74 N13       29.95R WCI  14
6HR MIN TEMP:  25; 6HR MAX TEMP:  32;

NEWTON *       CLOUDY    27  18  69 N14       29.95R WCI  15
PELLA *        CLOUDY    29  20  68 N14G24    29.96R WCI  19
PERRY *          N/A     28  20  73 N9        29.97R WCI  19
$$

IAZ004>006-015-016-023>025-035-036-140700-
   NORTH CENTRAL IOWA

CITY           SKY/WX    TMP DP  RH WIND       PRES   REMARKS
ALGONA *       CLOUDY    25  19  80 N12G18    29.96S WCI  14
CLARION *      CLOUDY    25  19  80 N12       29.96R WCI  14
ESTHERVILLE    CLOUDY    23  18  81 N10       29.97R WCI  12
6HR MIN TEMP:  23; 6HR MAX TEMP:  30;

FORT DODGE *   CLOUDY    26  19  74 N7        29.97R WCI  18
MASON CITY     CLOUDY    23  14  68 N7        29.96R WCI  15
6HR MIN TEMP:  23; 6HR MAX TEMP:  28;

FOREST CITY *  CLOUDY    25  18  74 N8        29.96R WCI  16
WEBSTER CITY * CLOUDY    27  18  69 N15       29.94S WCI  15
IOWA FALLS *   CLOUDY    26  19  74 NW14      29.95R WCI  15
$$

IAZ007>011-017>019-026>030-037>042-050>054-066-140700-
   NORTHEAST IOWA

CITY           SKY/WX    TMP DP  RH WIND       PRES   REMARKS
CEDAR RAPIDS   MOCLDY    23  14  68 N12       29.91R WCI  12
6HR MIN TEMP:  23; 6HR MAX TEMP:  32;

CHARLES CITY * CLOUDY    23  18  80 NE9       29.94R WCI  13
CLINTON *      PTCLDY    20  15  81 NW6       29.91  WCI  12
DECORAH *      CLEAR     16  12  86 N5        29.91R WCI   9
DUBUQUE        CLOUDY    21  14  74 N7        29.89R WCI  12
6HR MIN TEMP:  21; 6HR MAX TEMP:  26;

MONTICELLO *   CLOUDY    25  14  63 N9        29.91R WCI  15
OELWEIN *      CLEAR     18  14  86 N6        29.93R WCI   9
WATERLOO       CLOUDY    21  14  74 NE10      29.94R WCI  10
6HR MIN TEMP:  21; 6HR MAX TEMP:  30;

$$

IAZ064-065-067-068-078-140700-
   EAST CENTRAL IOWA

CITY           SKY/WX    TMP DP  RH WIND       PRES   REMARKS
DAVENPORT      CLOUDY    25  15  66 N14       29.92R WCI  13
6HR MIN TEMP:  25; 6HR MAX TEMP:  33;

IOWA CITY      CLOUDY    28  16  60 N10       29.95R WCI  19
6HR MIN TEMP:  28; 6HR MAX TEMP:  35;

MT. PLEASANT * CLOUDY    28  19  69 N17G23    29.92R WCI  15
MUSCATINE *    CLOUDY    27  16  63 N16       29.93R WCI  14
QUAD CITIES    CLOUDY    28  17  63 NW12      29.89R WCI  18
6HR MIN TEMP:  28; 6HR MAX TEMP:  36;

$$

IAZ062-063-075>077-085>089-095>099-140700-
   SOUTHEAST IOWA

CITY           SKY/WX    TMP DP  RH WIND       PRES   REMARKS
BURLINGTON     CLOUDY    28  19  69 N14G21    29.90R WCI  17
6HR MIN TEMP:  28; 6HR MAX TEMP:  36;

FAIRFIELD *    CLOUDY    28  19  69 N10       29.92R WCI  19
FORT MADISON * CLOUDY    28  19  69 N13       29.92R WCI  18
KEOKUK *       CLOUDY    32  23  69 N12       29.91R WCI  23
OSKALOOSA *    CLOUDY    28  19  71 N13G20    29.94R WCI  17
OTTUMWA        CLOUDY    29  19  66 N17       29.93R WCI  17
6HR MIN TEMP:  29; 6HR MAX TEMP:  37;

WASHINGTON *   CLOUDY    27  19  74 N13       29.93R WCI  16
$$

ABBREVIATIONS USED IN REMARKS
   TC - TEMPERATURES IN CELSIUS
  WCI - WIND CHILL INDEX
   HX - HEAT INDEX
  VSB - VISIBILITY
$$





USA.gov is the U.S. government's official web portal to all federal, state and local government web resources and services.